Regional Weather Roundup
Issued by NWS Grand Forks, ND

Home | Current Version | Previous Version | Text Only | Print | Product List | Glossary Off
Versions: 1 2 3 4 5 6 7 8 9 10 11 12 13 14 15 16 17 18 19 20 21 22 23 24 25 26 27 28 29 30 31 32 33 34 35 36 37 38 39 40 41 42 43 44 45 46 47 48 49 50

000
ASUS43 KFGF 231531
RWRFGF
PRAIRIE TO PINES  WEATHER ROUNDUP
NATIONAL WEATHER SERVICE EASTERN NORTH DAKOTA/GRAND FORKS ND
1000 AM CDT THU MAR 23 2017

 **SATELLITE DATA USED TO AUGMENT SKY COVER AT AUTOMATED STATIONS**
 *****  WEATHER ACROSS EASTERN NORTH DAKOTA  *****

CITY           SKY/WX    TMP DP  RH WIND       PRES   REMARKS
GRAND FORKS    CLOUDY    36  28  73 S15       29.84F
GRAND FRKS AFB FAIR      35  27  73 S12       29.84F
DEVILS LAKE    FAIR      32  28  85 SE5       29.76F
FARGO          LGT RAIN  38  28  67 S28G36    29.88S
WAHPETON ARPT  FAIR      37  27  65 SE17      29.90F
$$

 ***** WEATHER ACROSS CENTRAL AND WESTERN NORTH DAKOTA  *****

CITY           SKY/WX    TMP DP  RH WIND       PRES   REMARKS
BISMARCK       LGT RAIN  36  33  89 VRB3      29.77R FOG
MINOT          FAIR      38  31  76 W5        29.73S
JAMESTOWN      LGT RAIN  35  32  88 S10       29.78F
MINOT AFB      CLOUDY    35  32  87 CALM      29.73R
GARRISON         N/A     34  30  85 CALM      29.73S
WILLISTON      FAIR      37  33  85 CALM      29.77R
DICKINSON      CLOUDY    39  34  82 W8        29.72R
HETTINGER      CLOUDY    41  38  89 NE3       29.73R
$$

 *****  OTHER AIRPORT OBSERVATIONS IN OUR AREA  *****

CITY           SKY/WX    TMP DP  RH WIND       PRES   REMARKS
WALHALLA       NOT AVBL
GRAFTON AIRPOR FAIR      34  28  80 S13       29.85F WCI  25
VALLEY CITY AR DRIZZLE   34  34 100 S10       29.82F
CANDO          NOT AVBL
CAVALIER APRT  NOT AVBL
GWINNER        SUNNY     37  30  75 MISG      29.82F
SHEYENNE NWR     N/A     38  28  67 SE12      29.95S
ROLLA          FAIR      32  32 100 SW6       29.73F
 ***** THE ABOVE OBSERVATIONS ARE NON NWS ARE NOT QUALITY
       CONTROLLED AND MAY MIS-REPORT RAIN FOR SNOW...
$$

  *****  WEATHER ACROSS NORTHERN MINNESOTA  *****

CITY           SKY/WX    TMP DP  RH WIND       PRES   REMARKS
FLAG ISLAND    FAIR      30  25  80 S10       29.87S WCI  21
WARROAD        FAIR      36  27  69 S9G17     29.87F
ROSEAU         FAIR      37  27  65 S16       29.85F
HALLOCK        FAIR      34  28  80 S12       29.84F
THF RVR FALLS  FAIR      37  25  61 S15G22    29.87F
BAUDETTE       FAIR      36  21  54 S14       29.89F
WASKISH        FAIR      39  23  52 S10G21    29.91S
CROOKSTON      FAIR      39  27  60 S20G25    29.86F
STEPHEN NDAWN    N/A     36  28  75 S13         N/A
GREENBUSH NDAW   N/A     36  27  69 S12         N/A
$$
  *****  WEATHER ACROSS CENTRAL AND WEST MINNESOTA  *****

CITY           SKY/WX    TMP DP  RH WIND       PRES   REMARKS
FOSSTON        FAIR      37  25  60 S17       29.89R
BEMIDJI        FAIR      37  22  54 S16G22    29.92S
PARK RAPIDS    PTSUNNY   37  21  52 S17       29.93F
ELBOW LAKE     CLOUDY    37  24  59 SE21G29   29.92S
WADENA         CLOUDY    36  23  60 S12G17    29.94S
DETROIT LAKES  FAIR      39  27  60 S16       29.92R
MOORHEAD       LGT RAIN  37  27  65 S20       29.88F
FERGUS FALLS   CLOUDY    37  25  60 S18G24    29.96R
MORRIS MN      CLOUDY    37  25  60 SE21      29.91F
STAPLES        CLOUDY    36  21  55 S15G22    29.96F
$$
  *****  WEATHER ELSEWHERE ACROSS MINNESOTA  *****

CITY           SKY/WX    TMP DP  RH WIND       PRES   REMARKS
DULUTH         CLOUDY    32  25  75 S12       30.05F WCI  23
INTRNTL FALLS  FAIR      36  22  56 S10G20    29.95F
ELY            CLOUDY    32  23  69 S12G21    30.02F WCI  23
CLOQUET        CLOUDY    34  21  60 S7        30.04F
WHEATON        FAIR      39  25  56 SE17G26   29.92R
BRAINERD       CLOUDY    37  22  54 S17G24    29.99F
HIBBING        CLOUDY    32  21  64 S13G21    30.01F WCI  22
ALEXANDRIA     CLOUDY    37  23  56 S16       29.96F
SAINT CLOUD    CLOUDY    38  24  57 SE17      30.03F
MINNEAPOLIS    CLOUDY    38  21  50 S18       30.09F
$$

  *****  WEATHER ACROSS SOUTH DAKOTA  *****

CITY           SKY/WX    TMP DP  RH WIND       PRES   REMARKS
SIOUX FALLS    CLOUDY    42  26  53 SE20G26   29.90F
BROOKINGS      PTSUNNY   39  25  57 S17G28    29.87F
WATERTOWN      FAIR      38  26  62 S14       29.84F
HURON          CLOUDY    42  29  59 SE20G30   29.80F
SISSETON         N/A     40  29  64 S16       29.87S
ABERDEEN       FAIR      40  28  62 S20       29.79F
MITCHELL       CLOUDY    43  29  57 SE17G28   29.81F
PIERRE         FAIR      46  33  60 SE15      29.68F
MOBRIDGE       FAIR      45  31  58 SE10      29.68F
RAPID CITY     FAIR      50  40  68 N17G26    29.64F
$$

  *****  SOME WEATHER IN NEARBY STATES *****

CITY           SKY/WX    TMP DP  RH WIND       PRES   REMARKS
GLASGOW MT     FAIR      36  31  82 W8        29.77R
GREAT FALLS MT FAIR      41  30  65 SW9       29.85R
CHEYENNE WY    FAIR      51  32  48 E5        29.72F
SCOTTSBLUFF NE FAIR      42  34  73 CALM      29.69S
OMAHA NE       CLOUDY    50  34  54 SE17      29.95F
DES MOINES IA  CLOUDY    44  27  51 SE18      30.09F
DAVENPORT IA   CLOUDY    38  23  55 SE16      30.27F
CHICAGO IL     CLOUDY    36  19  50 SE14      30.39F
EAU CLAIRE WI  CLOUDY    35  19  52 SE13G21   30.16F
LA CROSSE WI   CLOUDY    38  22  52 SE14      30.20F
$$

  *****  SOME NATIONAL WEATHER *****

CITY           SKY/WX    TMP DP  RH WIND       PRES   REMARKS
LA GUARDIA NY  FAIR      32   2  27 NW9       30.61S WCI  24
RALEIGH NC     FAIR      46  16  30 E12       30.61R
ATLANTA GA     FAIR      55  37  50 E18G26    30.43R
NEW ORLEANS LA FAIR      74  61  63 E13       30.21R
OKLAHOMA CITY  CLOUDY    61  57  87 S17G25    29.97F
ALBUQUERQUE NM FAIR      59  18  20 SW13      29.86S
SALT LAKE CITY LGT RAIN  40  38  93 S7        29.77R
LOS ANGELES CA FAIR      58  38  47 NW12G23   30.06R
BOISE ID       FAIR      38  31  76 NW14      29.99R
SEATTLE WA     MOCLDY    42  37  82 SE10      30.08S
$$

*** WEATHER ACROSS MANITOBA...SASKATCHEWAN AND ONTARIO ***
                ***ONTARIO***

CITY           SKY/WX    TMP DP  RH WIND       PRES   REMARKS
GERALDTON      CLOUDY    27  21  80 S10       30.12F WCI  17
THUNDER BAY    FLURRIES  32  28  86 S13       30.13F WCI  22
SIOUX LOOKOUT  CLOUDY    30  21  69 S17       29.91F WCI  18
TORONTO        MOSUNNY   28  10  47 S3        30.59F
BIG TROUT LK   CLOUDY    25  21  86 S14G20    29.78F WCI  13
PICKLE LAKE    FLURRIES  25  21  86 S16G23    29.89F WCI  12
DRYDEN         MOSUNNY   32  21  64 S18G24    29.90F WCI  20
KENORA         PTSUNNY   34  21  60 S12G20    29.85F
$$
                *** MANITOBA***

CITY           SKY/WX    TMP DP  RH WIND       PRES   REMARKS
BRANDON        PTSUNNY   25  23  93 W7        29.74S WCI  17
DAUPHIN        SUNNY     36  30  80 W15G21    29.72R
ISLAND LAKE    FLURRIES  28  23  80 S9        29.62  WCI  20
PILOT MOUND      N/A     30  27  86 SW10        N/A  WCI  21
THE PAS        CLOUDY    25  19  80 W16       29.68R WCI  12
THOMPSON       LGT SNOW  25  23  93 NE7       29.62R WCI  17
WINNIPEG       PTSUNNY   34  27  75 S24       29.80S WCI  21
LYNN LAKE      MOSUNNY   21  18  86 N14       29.71R WCI   8
CHURCHILL      CLOUDY    12   7  79 N8        29.78S WCI   1
GILLAM         LGT SNOW  23  21  93 E5        29.66F VSB 1   WCI  17
$$
                ***SASKATCHEWAN***

CITY           SKY/WX    TMP DP  RH WIND       PRES   REMARKS
ESTEVAN        PTSUNNY   32  30  93 W6        29.75R
KINDERSLEY     MOSUNNY   28  25  86 SE6       29.77R WCI  22
LLOYDMINSTER   FOG       21  21 100 N2        29.77R VSB 1/8
PRINCE ALBERT  CLOUDY    25  18  74 NW10      29.78R WCI  15
REGINA         CLOUDY    30  28  93 N7        29.79R FOG     WCI  23
YORKTON        PTSUNNY   30  25  80 W14       29.76R WCI  20
N. BATTLEFORD  CLOUDY    21 N/A N/A W6        29.83R WCI  14
LA RONGE       PTSUNNY   19  16  86 NW9       29.78R WCI   9
SASKATOON      PTSUNNY   25  21  86 NW10      29.81R WCI  15
SWIFT CURRENT  SUNNY     34  34 100 CALM      29.74S FOG
$$
NOTE: THESE ARE AUTOMATED STATIONS WITH LIMITED QUALITY CONTROL
      "FAIR" INDICATES FEW OR NO CLOUDS BELOW 12,000 FEET WITH NO
      SIGNIFICANT WEATHER AND/OR OBSTRUCTIONS TO VISIBILITY.
      SKY/WX - SKY CONDITION AND SIGNIFICANT WEATHER.
      TMP - AIR TEMPERATURE.    DP   - DEWPOINT TEMPERATURE.
      RH  - RELATIVE HUMIDITY.  PRES - PRESSURE.
      HX  - HEAT INDEX.         WCI  - WIND CHILL INDEX.
$




USA.gov is the U.S. government's official web portal to all federal, state and local government web resources and services.